Regional Weather Roundup
Issued by NWS Northern Indiana

Home | Current Version | Previous Version | Text Only | Print | Product List | Glossary Off
Versions: 1 2 3 4 5 6 7 8 9 10 11 12 13 14 15 16 17 18 19 20 21 22 23 24 25 26 27 28 29 30 31 32 33 34 35 36 37 38 39 40 41 42 43 44 45 46 47 48 49 50

178
ASUS43 KIWX 271510
RWRIWX

KIWX WEATHER ROUNDUP
NATIONAL WEATHER SERVICE NORTHERN INDIANA
1100 AM EDT WED JUL 27 2016

NOTE: "FAIR" INDICATES FEW OR NO CLOUDS BELOW 12,000 FEET WITH NO
SIGNIFICANT WEATHER AND/OR OBSTRUCTIONS TO VISIBILITY.

* THESE STATIONS ARE NOT UNDER NWS QUALITY CONTROL. THEY ALSO MAY NOT
  REPORT WEATHER SUCH AS PRECIPITATION OR FOG.

INZ001>027-271600-
NORTHERN INDIANA

CITY           SKY/WX    TMP DP  RH WIND       PRES   REMARKS
GARY*          MOSUNNY   82  70  65 CALM      30.02F
VALPARAISO     SUNNY     82  66  58 SW6       30.03S
MICHIGAN CITY* SUNNY     81  68  65 CALM      30.02F
LAPORTE*       SUNNY     83  73  71 CALM      30.03F
KNOX*          SUNNY     79  61  53 W3        30.02F
SOUTH BEND     SUNNY     81  70  69 CALM      30.03S
GOSHEN         SUNNY     80  60  50 W5        30.03S
MONTICELLO*    SUNNY     80  66  61 CALM      30.02S
LOGANSPORT*    SUNNY     79  66  65 CALM      30.03F
ROCHESTER*     SUNNY     82  70  65 N5        30.03F
WARSAW*        SUNNY     79  66  65 CALM      30.03F
ANGOLA*          N/A     82  66  57 CALM      30.03F
FORT WAYNE     MOSUNNY   83  63  50 W7        30.02F
HUNTINGTON*    SUNNY     80  65  60 NE5       30.02F
PERU/GRISSOM   SUNNY     82  66  59 NW5       30.02S
MARION*        SUNNY     80  65  61 NW3       30.03F

$$
INZ028>050-271600-
CENTRAL INDIANA

CITY           SKY/WX    TMP DP  RH WIND       PRES   REMARKS
LAFAYETTE      SUNNY     81  70  69 NE6       30.01F
KOKOMO*        SUNNY     84  66  54 N5        30.03S
MUNCIE*        SUNNY     83  66  56 N5        30.03F
INDIANAPOLIS   MOSUNNY   82  65  56 CALM      30.03S

$$
MIZ043>046-050>051-056>058-064>065-071>073-077>080-271600-
SOUTHWEST LOWER MICHIGAN

CITY           SKY/WX    TMP DP  RH WIND       PRES   REMARKS
BATTLE CREEK   SUNNY     78  63  59 W7        30.04S
BENTON HARBOR  SUNNY     81  64  56 CALM      30.02S
HOLLAND        SUNNY     82  69  64 SW7       30.02S
GRAND RAPIDS   PTSUNNY   80  63  55 SW8       30.02S
KALAMAZOO      SUNNY     80  60  50 S5        30.02F

$$
OHZ001>008-015>018-024>025-271600-
NORTHWEST OHIO

CITY           SKY/WX    TMP DP  RH WIND       PRES   REMARKS
DEFIANCE       SUNNY     82  64  54 S6        30.02F
FINDLAY        SUNNY     84  54  35 E3        30.02F
TOLEDO EXPRESS SUNNY     81  63  54 CALM      30.02F
TOLEDO METCALF SUNNY     84  63  49 VRB3      30.02F
LIMA           SUNNY     82  64  54 NW3       30.02F

$$
AND FOR LAKE MICHIGAN COASTAL AND OPEN LAKE BUOY OBSERVATIONS

STATION/POSITION TEMP    WIND        PRES    VSBY  WAVE
                 AIR SEA DIR/SP/G                  HT/PER
                 (F)     (DEG/KT/KT) (MB)    (MI)  (FT/S)
CALUMET HARBOR    83      CALM  /  1 1015.8F
MICHIGAN CITY     74     230/  5/  6   N/A
BURNS HARBOR      75     270/  4/  5 1016.9F
SAINT JOSEPH      80     230/  3/  4 1017.3R
SOUTH LAKE BUOY   75 75  230/  6/  8 1015.3S         0
4 MI NW BRIDGMAN  74 76  200/  4/  4 1016.1F         0
MICHIGAN CITY     75 76  250/  4/  4   N/A           1

$$
&&




USA.gov is the U.S. government's official web portal to all federal, state and local government web resources and services.